Regional Weather Roundup
Issued by NWS Charleston, SC

Current Version | Previous Version | Graphics & Text | Print | Product List | Glossary On
Versions: 1 2 3 4 5 6 7 8 9 10 11 12 13 14 15 16 17 18 19 20 21 22 23 24 25 26 27 28 29 30 31 32 33 34 35 36 37 38 39 40 41 42 43 44 45 46 47 48 49 50
902
ASUS42 KCHS 171612
RWRCHS

REGIONAL WEATHER ROUNDUP
NATIONAL WEATHER SERVICE CHARLESTON SC
1200 PM EDT TUE OCT 17 2017

NOTE: "FAIR" INDICATES FEW OR NO CLOUDS BELOW 12,000 FEET WITH NO
SIGNIFICANT WEATHER AND/OR OBSTRUCTIONS TO VISIBILITY.

NOT ALL STATIONS ARE QUALITY CONTROLLED. USE DATA WITH CAUTION...
ESPECIALLY DEWPOINT OBSERVATIONS.

SCZ027-030-031-034>040-042>050-171700-
...SOUTHEAST SOUTH CAROLINA...

CITY           SKY/WX    TMP DP  RH WIND       PRES   REMARKS
N CHARLESTON   PTSUNNY   58  45  62 N15       30.29S
WATERFRONT PRK   N/A     60  52  74 N18       30.12S
JOHNS ISLAND   FAIR      59  46  63 N14       30.27S
PINOPOLIS        N/A     59  48  67 NE17      30.21F
MONCKS CORNER  FAIR      61  39  44 NE14G20   30.30S
SUMMERVILLE    FAIR      61  43  51 NE14G25   30.31S
BEAUFORT MCAS  CLOUDY    60  46  59 NE12      30.29R
BEAUFORT ARPT  FAIR      59  45  58 N22       30.28R
HILTON HEAD IS PTSUNNY   61  46  59 N14G25    30.27R
WALTERBORO     MOSUNNY   63  41  45 NE14G25   30.32R
ALLENDALE        N/A     63  39  42 VRB7G17     N/A

...SOUTHERN MIDLANDS AND PEE DEE...

CITY           SKY/WX    TMP DP  RH WIND       PRES   REMARKS
GEORGETOWN     FAIR      57  45  62 N13G21    30.30S
KINGSTREE      FAIR      63  37  39 N9        30.32F
ORANGEBURG     SUNNY     64  37  36 NE17G25   30.32F
BARNWELL         N/A     64  39  39 NE15      30.32F
AIKEN          FAIR      61  37  41 NE16G22   30.37F
MANNING        HAZE      63  43  48 MISG      30.32S VSB 1/2
COLUMBIA       MOSUNNY   64  39  39 NE12G24   30.34F
SUMTER         MOSUNNY   64  33  31 NE17G25   30.31F
FLORENCE       SUNNY     62  39  42 NE16      30.34R
MYRTLE BEACH   PTSUNNY   59  45  59 N17       30.30F
N MYRTLE BEACH CLOUDY    60  45  57 N10G22    30.29S

$$

GAZ063-065-086>088-099>101-113>116-118-119-134>141-150-171700-
...SOUTHEAST GEORGIA...

CITY           SKY/WX    TMP DP  RH WIND       PRES   REMARKS
SAVANNAH ARPT  NOT AVBL
HUNTER AAF     CLOUDY    61  47  59 NE13      30.24S
FORT STEWART   CLOUDY    61  46  57 NE13      30.25F
STATESBORO     SUNNY     65  35  33 NE9G18    30.30S
SYLVANIA       SUNNY     65  44  45 E10G20    30.31S
CLAXTON        FAIR      65  43  43 N12G20    30.29S

...CSRA...CENTRAL AND FAR SOUTHEAST GEORGIA...

CITY           SKY/WX    TMP DP  RH WIND       PRES   REMARKS
THOMSON        SUNNY     62  39  42 E14G21    30.40S
AUGUSTA-BUSH   SUNNY     67  38  34 NE13G21   30.33F
AUGUSTA-DANIEL SUNNY     65  36  34 NE15G23   30.34F
SWAINSBORO     FAIR      64  37  36 NE10      30.32S
VIDALIA        SUNNY     68  39  34 NE20G25   30.29F
EASTMAN        FAIR      68  19  15 E16G23    30.33S
HAZLEHURST     FAIR      66  21  17 E14G20    30.27F
ALMA           SUNNY     67  45  45 NE8G18    30.26S
WAYCROSS       CLOUDY    64  45  50 NE14G21   30.25S
JESUP          NOT AVBL
BAXLEY         FAIR      63  39  42 NE14G21   30.27S
BRUNSWICK      CLOUDY    64  52  63 N16G23    30.23S
SAINT SIMONS   CLOUDY    68  57  68 N16G23    30.21R

$$

SCZ027-028-034-036>038-045-046-048>050-GAZ119-141-171700-
...LAKE AND SUPPLEMENTAL COASTAL OBSERVATIONS...

STATION/POSITION TIME  TEMP    WIND        PRES    WAVE   SWELL
                       AIR SEA DIR/SP/G            HT/PER HT/PER/DIR
                 (UTC) (F)     (DEG/KT/KT) (MB)    (FT/S) (FT/S/D)
WINYAH BAY       1445   56      20/ 10     1025.0
LAKE MURRAY      1520   60      40/  5/ 11 1027.1S
ACE BASIN NERRS  1445   57      10/  5     1025.0
FORT PULASKI     1542   61 77   30/ 18/ 23 1025.0R
SAPELO ISLAND    1500   64      20/ 15     1023.0

$$

ANZ835-935-AMZ111-154-330-350-352-354-370-450-454-472-171700-
...C-MAN AND BUOY OBSERVATIONS...

STATION/POSITION TIME  TEMP    WIND        PRES    WAVE   SWELL
                       AIR SEA DIR/SP/G            HT/PER HT/PER/DIR
                 (UTC) (F)     (DEG/KT/KT) (MB)    (FT/S) (FT/S/D)
BUOY 41004       1550   68 80   30/ 23/ 31 1022.7R   9/ 8
BUOY 41008       1550   68 79   40/ 23/ 31 1022.1R   7/ 6   2/ 80/ 9
FOLLY BEACH CMAN 1500   60      20/ 20/ 25 1025.2R
CAPERS NEARSHORE 1508   59 76   30/ 21/ 29 1024.0R
FRIPP NEARSHORE  1508   63      40/ 21/ 27   N/A


STATION/POSITION TIME  TEMP    WIND        PRES    WAVE   SWELL
                       AIR SEA DIR/SP/G            HT/PER HT/PER/DIR
                 (UTC) (F)     (DEG/KT/KT) (MB)    (FT/S) (FT/S/D)
5E ST. MARYS GA  1530      79                N/A     7/ 6   2/100/11
FRYING PAN BUOY  1550   66 77   30/ 23/ 31 1023.4R   9/ 7   3/130/11
BUOY 41025       1550   65 81   20/ 23/ 29 1023.7R   8/10   5/ 70/10
CAPE LOOKOUT NC  1500   63      10/ 17/ 23 1024.2R
BUOY 41002       1550   77 79   30/ 21/ 25 1017.6R  13/10  10/ 20/10
BUOY 41010       NOT AVBL
ST AUGUSTINE FL  1600   75 80   20/ 27/ 31 1020.1R


$$




USA.gov is the U.S. government's official web portal to all federal, state and local government web resources and services.